Tracking 29892 objects as of 21-Nov-2024
HD Live streaming from Space Station
objects crossing your sky now

STARLINK-1626

Track STARLINK-1626 now!
10-day predictions
STARLINK-1626 is classified as:


NORAD ID: 46167
Int'l Code: 2020-057BC
Perigee: 553.1 km
Apogee: 555.6 km
Inclination: 53.1 °
Period: 95.6 minutes
Semi major axis: 6925 km
RCS: Unknown
Launch date: August 18, 2020
Source: United States (US)
Launch site: AIR FORCE EASTERN TEST RANGE (AFETR)
Your satellite tracking list
Your tracking list is empty




NASA's NSSDC Master Catalog

Two Line Element Set (TLE):
1 46167U 20057BC  24325.28309782  .00001938  00000-0  14898-3 0  9997
2 46167  53.0524 286.3072 0001780  94.3073 265.8119 15.06402668234565
Source of the keplerian elements: AFSPC